Weather in Kuleshi

Russia / Oryol Oblast     52°58′58″N   37°23′52″E
temp.,
°C
wind,
m/s
gust,
m/s
humid.,
%
clouds,
%
prec.,
mm/h
press.,
hPa
HPBL,
m
14 may, fri
fri1400:00+10se35955 0.0 101671
03:00+9ese3494100 0.0 101754
06:00+10ese369488 0.0 1016137
09:00+16se5879100 0.1 1015510
12:00+19se5979100 0.7 1014827
15:00+21se8147299 1.7 10121546
18:00+20sse6137598 0.5 10111025
21:00+15sse4118811 0.6 1011234
15 may, sat
sat1500:00+14sse4795100 2.8 1010132
03:00+14sse229542 5.6 101029
06:00+14sse239496 0.0 101060
09:00+18ssw4682100 0.0 1010389
12:00+20ssw676589 0.0 1011995
15:00+21ssw79580 0.0 10111951
18:00+19sw59727 0.4 1012708
21:00+14ssw35865 0.4 101289
16 may, sun
sun1600:00+13ssw36925 0.0 1013111
03:00+12ssw34935 0.0 101467
06:00+13s2488100 0.0 101496
09:00+18ssw347180 0.0 1015479
12:00+21s45575 0.2 10141360
15:00+22ssw465174 0.4 10132227
18:00+20sw1167100 0.0 101311
21:00+17se1175100 0.0 101311
17 may, mon
mon1700:00+15ene227910 0.0 101318
03:00+14ene468250 0.0 101390
06:00+14ene4989100 0.0 1012188
09:00+19e6107569 0.0 1011407
12:00+24se685554 0.0 1010797
15:00+25se611555 0.0 10091280
18:00+23se612625 0.0 1008547
21:00+20ese6167245 0.0 1009429
18 may, tue
tue1800:00+17se5147867 0.0 1008334
03:00+15se4986100 0.0 1007167
06:00+15sse37885 0.0 1007157
09:00+20sse457249 0.0 1007472
12:00+22s5669100 0.0 10071052
15:00+18wnw5695100 3.9 1008294
18:00+18ssw4691100 1.7 1009391
21:00+15wsw35945 2.1 101095